Location: Stanford
(52.2833°N, 2.4333°W)
Time: 23:38:38
(UTC+00:00)

ERS-2 - Pass Details

Date: 22 January 2021
Orbit: 492 x 497 km, 98.6° (Epoch: 01 March)

Event Time Altitude Azimuth Distance (km) Brightness Sun altitude
Exits shadow 18:33:30 35° 45° (NE) 827 2.8 -17.1°
Maximum altitude 18:34:44 53° 102° (ESE) 617 2.2 -17.3°
Drops below altitude 10° 18:38:17 10° 180° (S) 1,685 4.9 -17.8°
Sets 18:40:22 0° 185° (S) 2,562 5.9 -18.1°
